Location: Lansingburgh
(42.7845°N, 73.6696°W)
Time: 15:21:31
(UTC+00:00)

SL-14 R/B - Pass Details

Date: 24 January 2020
Orbit: 518 x 555 km, 82.4° (Epoch: 26 February)

Event Time Altitude Azimuth Distance (km) Brightness Sun altitude
Rises 22:27:04 0° 201° (SSW) 2,707 7.5 -5.9°
Reaches altitude 10° 22:29:17 10° 207° (SSW) 1,814 6.7 -6.3°
Maximum altitude 22:33:08 46° 281° (WNW) 740 4.5 -7.0°
Drops below altitude 10° 22:36:58 10° 356° (N) 1,807 5.8 -7.6°
Sets 22:39:11 0° 3° (N) 2,697 6.6 -8.0°
